Location: La Oliva
(42.2466°N, 2.9955°E)
Time: 11:02:21
(UTC+00:00)

ERS-2 - Pass Details

Date: 22 April 2021
Orbit: 491 x 497 km, 98.6° (Epoch: 10 May)

Event Time Altitude Azimuth Distance (km) Brightness Sun altitude
Rises 19:18:51 0° 11° (N) 2,585 5.9 -8.0°
Reaches altitude 10° 19:20:56 10° 9° (N) 1,696 5.0 -8.3°
Maximum altitude 19:24:34 69° 286° (WNW) 531 2.5 -8.9°
Drops below altitude 10° 19:28:09 10° 203° (SSW) 1,679 4.8 -9.5°
Sets 19:30:12 0° 201° (SSW) 2,555 5.7 -9.8°
